Location: Azul
(36.7830°S, 59.8500°W)
Time: 03:06:30
(UTC-03:00)

ISS - Pass Details

Date: 17 October 2019
Orbit: 411 x 421 km, 51.6° (Epoch: 14 October)

Event Time Altitude Azimuth Distance (km) Brightness Sun altitude
Exits shadow 03:50:51 26° 112° (ESE) 877 -1.5 -26.7°
Drops below altitude 10° 03:52:56 10° 81° (E) 1,519 -0.4 -26.3°
Sets 03:55:10 0° 70° (ENE) 2,379 0.5 -26.0°
